Mekoryuk, AK

9:27 AM AKDT on September 26, 2017 (GMT -0800)
Mekoryuk

Weather History for PAMY - October, 2013

Change the Weather History Date:

Monday, October 14, 2013

  Actual Average Record
Temperature  
Mean Temperature 40 °F -  
Max Temperature 48 °F 36 °F 48 °F (2002)
Min Temperature 33 °F 29 °F 19 °F (2007)
Degree Days  
Heating Degree Days 24    
Moisture  
Dew Point 34 °F    
Average Humidity 78    
Maximum Humidity 81    
Minimum Humidity 71    
Precipitation  
Precipitation 0.00 in - - ()
Sea Level Pressure  
Sea Level Pressure 29.45 in    
Wind  
Wind Speed 11 mph (South)    
Max Wind Speed 22 mph    
Max Gust Speed 31 mph    
Visibility 7 miles    
Events      
Averages and records for this station are not official NWS values.
T = Trace of Precipitation, MM = Missing Value Source: NWS Daily Summary

Daily Weather History Graph

Daily Weather History Graph

Search for Another Location

Airport or City:

Trip Planner

Search our weather history database for the weather conditions in past years. The results will help you decide how hot, cold, wet, or windy it might be!

Date:

Astronomy

Oct. 14, 2013 Rise Set
Actual Time 9:44 AM AKDT 7:56 PM AKDT
Civil Twilight 9:01 AM AKDT 8:39 PM AKDT
Nautical Twilight 8:12 AM AKDT 9:27 PM AKDT
Astronomical Twilight 7:23 AM AKDT 10:16 PM AKDT
Moon 6:26 PM AKDT (10/14) 4:11 AM AKDT (10/14)
Length of Visible Light 11h 37m
Length of Day
10h 12m
Waxing Gibbous, 80% of the Moon is Illuminated
Oct 14
Waxing Gibbous
Oct 18
Full
Oct 26
Last Quarter
Nov 3
New
Nov 9
First Quarter

Hourly Weather History & Observations

Time (AKDT) Temp. Windchill Dew Point Humidity Pressure Visibility Wind Dir Wind Speed Gust Speed Precip Events Conditions
12:16 AM 37.4 °F 30.8 °F 32.0 °F 81% 29.55 in 3.0 mi WSW 9.2 mph - N/A   Overcast
12:36 AM 37.4 °F 32.1 °F 30.2 °F 75% 29.56 in 2.5 mi WSW 6.9 mph - N/A   Overcast
12:56 AM 37.4 °F 33.8 °F 30.2 °F 75% 29.56 in 1.8 mi WSW 4.6 mph - N/A   Overcast
1:16 AM 35.6 °F 29.9 °F 30.2 °F 81% 29.56 in 1.0 mi SW 6.9 mph - N/A   Overcast
1:36 AM 35.6 °F 29.2 °F 30.2 °F 81% 29.56 in 2.5 mi SW 8.1 mph - N/A   Overcast
1:56 AM 37.4 °F 32.1 °F 30.2 °F 75% 29.55 in 3.0 mi SSW 6.9 mph - N/A   Overcast
2:16 AM 35.6 °F 30.7 °F 30.2 °F 81% 29.55 in 10.0 mi SW 5.8 mph - N/A   Overcast
2:36 AM 33.8 °F 29.6 °F 28.4 °F 81% 29.54 in 10.0 mi South 4.6 mph - N/A   Overcast
2:56 AM 33.8 °F 29.6 °F 28.4 °F 81% 29.55 in 10.0 mi South 4.6 mph - N/A   Overcast
3:16 AM 33.8 °F 28.6 °F 26.6 °F 75% 29.55 in 10.0 mi SSW 5.8 mph - N/A   Overcast
3:36 AM 33.8 °F 28.6 °F 28.4 °F 81% 29.55 in 10.0 mi SSW 5.8 mph - N/A   Mostly Cloudy
3:56 AM 33.8 °F 28.6 °F 26.6 °F 75% 29.56 in 10.0 mi SSW 5.8 mph - N/A   Mostly Cloudy
4:16 AM 33.8 °F 28.6 °F 26.6 °F 75% 29.55 in 10.0 mi SSW 5.8 mph - N/A   Scattered Clouds
4:36 AM 33.8 °F 27.7 °F 26.6 °F 75% 29.54 in 10.0 mi South 6.9 mph - N/A   Clear
4:56 AM 33.8 °F 28.6 °F 28.4 °F 81% 29.54 in 10.0 mi South 5.8 mph - N/A   Clear
5:16 AM 33.8 °F 29.6 °F 26.6 °F 75% 29.54 in 10.0 mi South 4.6 mph - N/A   Scattered Clouds
5:36 AM 33.8 °F 30.8 °F 28.4 °F 81% 29.53 in 10.0 mi SE 3.5 mph - N/A   Mostly Cloudy
5:56 AM 33.8 °F 29.6 °F 28.4 °F 81% 29.53 in 10.0 mi SSE 4.6 mph - N/A   Overcast
6:16 AM 33.8 °F 30.8 °F 28.4 °F 81% 29.53 in 10.0 mi SSE 3.5 mph - N/A   Overcast
6:36 AM 33.8 °F 27.7 °F 28.4 °F 81% 29.53 in 10.0 mi South 6.9 mph - N/A   Overcast
6:56 AM 33.8 °F 28.6 °F 28.4 °F 81% 29.52 in 10.0 mi SSE 5.8 mph - N/A   Overcast
7:16 AM 33.8 °F 28.6 °F 28.4 °F 81% 29.52 in 10.0 mi SSE 5.8 mph - N/A   Overcast
7:36 AM 33.8 °F 30.8 °F 28.4 °F 81% 29.51 in 10.0 mi SE 3.5 mph - N/A   Mostly Cloudy
7:56 AM 33.8 °F 30.8 °F 28.4 °F 81% 29.51 in 10.0 mi SSE 3.5 mph - N/A   Overcast
8:16 AM 35.6 °F 29.2 °F 28.4 °F 75% 29.50 in 10.0 mi SE 8.1 mph - N/A   Mostly Cloudy
8:36 AM 35.6 °F 29.2 °F 28.4 °F 75% 29.49 in 10.0 mi SE 8.1 mph - N/A   Mostly Cloudy
8:56 AM 35.6 °F 28.0 °F 30.2 °F 81% 29.48 in 10.0 mi SE 10.4 mph - N/A   Overcast
9:16 AM 35.6 °F 28.0 °F 30.2 °F 81% 29.48 in 10.0 mi SE 10.4 mph - N/A   Overcast
9:36 AM 35.6 °F 28.0 °F 30.2 °F 81% 29.47 in 10.0 mi SE 10.4 mph - N/A   Overcast
9:56 AM 35.6 °F 28.0 °F 30.2 °F 81% 29.47 in 10.0 mi SE 10.4 mph - N/A   Overcast
10:16 AM 37.4 °F 29.8 °F 30.2 °F 75% 29.46 in 10.0 mi SE 11.5 mph - N/A   Overcast
10:36 AM 37.4 °F 29.3 °F 30.2 °F 75% 29.45 in 10.0 mi SE 12.7 mph - N/A   Overcast
10:56 AM 37.4 °F 28.5 °F 32.0 °F 81% 29.45 in 9.0 mi SE 15.0 mph - N/A   Overcast
11:16 AM 39.2 °F 29.8 °F 32.0 °F 75% 29.44 in 5.0 mi SE 18.4 mph 24.2 mph N/A   Overcast
11:36 AM 39.2 °F 30.2 °F 33.8 °F 81% 29.43 in 8.0 mi SE 17.3 mph 24.2 mph N/A   Overcast
11:56 AM 39.2 °F 29.6 °F 33.8 °F 81% 29.42 in 9.0 mi SE 19.6 mph 25.3 mph N/A   Mostly Cloudy
12:16 PM 41.0 °F 31.4 °F 33.8 °F 76% 29.42 in 6.0 mi SE 21.9 mph 31.1 mph N/A   Overcast
12:36 PM 41.0 °F 31.6 °F 35.6 °F 81% 29.41 in 8.0 mi SE 20.7 mph 28.8 mph N/A   Overcast
1:16 PM 42.8 °F 34.5 °F 35.6 °F 76% 29.39 in 4.0 mi SE 18.4 mph 26.5 mph N/A   Overcast
1:36 PM 42.8 °F 34.0 °F 37.4 °F 81% 29.38 in 4.0 mi SE 20.7 mph 26.5 mph N/A   Overcast
1:56 PM 42.8 °F 34.3 °F 37.4 °F 81% 29.38 in 4.0 mi SSE 19.6 mph 28.8 mph N/A   Overcast
2:16 PM 44.6 °F 36.9 °F 39.2 °F 81% 29.36 in 4.0 mi SSE 18.4 mph 27.6 mph N/A   Overcast
2:36 PM 44.6 °F 37.2 °F 39.2 °F 81% 29.36 in 7.0 mi SSE 17.3 mph 23.0 mph N/A   Overcast
2:56 PM 46.4 °F 39.5 °F 39.2 °F 76% 29.36 in 8.0 mi South 17.3 mph 25.3 mph N/A   Overcast
3:16 PM 48.2 °F - 39.2 °F 71% 29.35 in 10.0 mi South 17.3 mph 25.3 mph N/A   Overcast
3:36 PM 48.2 °F - 39.2 °F 71% 29.34 in 10.0 mi South 19.6 mph 24.2 mph N/A   Overcast
3:56 PM 48.2 °F - 39.2 °F 71% 29.34 in 10.0 mi SSW 19.6 mph - N/A   Overcast
4:16 PM 48.2 °F - 39.2 °F 71% 29.34 in 7.0 mi SW 18.4 mph 28.8 mph N/A   Overcast
4:36 PM 48.2 °F - 39.2 °F 71% 29.35 in 5.0 mi SW 21.9 mph 27.6 mph N/A   Overcast
4:56 PM 48.2 °F - 39.2 °F 71% 29.37 in 4.0 mi SW 17.3 mph 24.2 mph N/A   Overcast
5:16 PM 46.4 °F 39.2 °F 39.2 °F 76% 29.37 in 4.0 mi SW 18.4 mph 28.8 mph N/A   Overcast
5:36 PM 48.2 °F - 39.2 °F 71% 29.37 in 5.0 mi SSW 17.3 mph 21.9 mph N/A   Overcast
5:56 PM 48.2 °F - 39.2 °F 71% 29.38 in 4.0 mi SSW 17.3 mph - N/A   Overcast
6:16 PM 46.4 °F 39.5 °F 39.2 °F 76% 29.38 in 3.0 mi SSW 17.3 mph 23.0 mph N/A   Overcast
6:36 PM 46.4 °F 40.4 °F 39.2 °F 76% 29.40 in 4.0 mi SSW 13.8 mph 21.9 mph N/A   Overcast
6:56 PM 46.4 °F 39.5 °F 39.2 °F 76% 29.40 in 4.0 mi SSW 17.3 mph 24.2 mph N/A   Overcast
7:16 PM 46.4 °F 39.8 °F 39.2 °F 76% 29.40 in 4.0 mi South 16.1 mph - N/A   Overcast
7:36 PM 46.4 °F 40.1 °F 39.2 °F 76% 29.41 in 3.0 mi South 15.0 mph 23.0 mph N/A   Overcast
7:56 PM 46.4 °F 39.8 °F 39.2 °F 76% 29.41 in 5.0 mi South 16.1 mph - N/A   Overcast
8:16 PM 46.4 °F 39.8 °F 39.2 °F 76% 29.41 in 5.0 mi South 16.1 mph 20.7 mph N/A   Overcast
8:36 PM 46.4 °F 39.5 °F 39.2 °F 76% 29.41 in 5.0 mi South 17.3 mph 24.2 mph N/A   Overcast
8:56 PM 46.4 °F 38.7 °F 39.2 °F 76% 29.41 in 5.0 mi South 20.7 mph - N/A   Overcast
9:16 PM 44.6 °F 37.4 °F 39.2 °F 81% 29.41 in 6.0 mi South 16.1 mph 21.9 mph N/A   Overcast
9:36 PM 44.6 °F 36.9 °F 39.2 °F 81% 29.42 in 5.0 mi South 18.4 mph - N/A   Overcast
9:56 PM 44.6 °F 37.4 °F 39.2 °F 81% 29.42 in 5.0 mi South 16.1 mph - N/A   Overcast
10:16 PM 44.6 °F 37.2 °F 39.2 °F 81% 29.42 in 7.0 mi South 17.3 mph 24.2 mph N/A   Overcast
10:36 PM 44.6 °F 37.2 °F 39.2 °F 81% 29.42 in 7.0 mi South 17.3 mph 23.0 mph N/A   Overcast
10:56 PM 44.6 °F 37.4 °F 39.2 °F 81% 29.42 in 8.0 mi South 16.1 mph 23.0 mph N/A   Overcast
11:16 PM 44.6 °F 37.8 °F 39.2 °F 81% 29.42 in 8.0 mi South 15.0 mph - N/A   Overcast
11:36 PM 44.6 °F 36.9 °F 39.2 °F 81% 29.42 in 7.0 mi South 18.4 mph 21.9 mph N/A   Overcast
11:56 PM 44.6 °F 37.2 °F 39.2 °F 81% 29.42 in 7.0 mi South 17.3 mph - N/A   Overcast